Regional Weather Roundup
Issued by NWS

Home | Current Version | Previous Version | Text Only | Print | Product List | Glossary Off
Versions: 1 2 3 4 5 6 7 8 9 10 11 12 13 14 15 16 17 18 19 20 21 22 23 24 25 26 27 28 29 30 31 32 33 34 35 36 37 38 39 40 41 42 43 44 45 46 47 48 49 50

000
ASUS43 KLOT 200612
RWRIL

ILLINOIS REGIONAL WEATHER ROUNDUP
NATIONAL WEATHER SERVICE CHICAGO/ROMEOVILLE IL
1200 AM CST MON FEB 20 2017

NOTE: "FAIR" INDICATES FEW OR NO CLOUDS BELOW 12,000 FEET WITH NO
SIGNIFICANT WEATHER AND/OR OBSTRUCTIONS TO VISIBILITY.

* THESE STATIONS ARE NOT UNDER NWS QUALITY CONTROL. THEY ALSO MAY NOT
  REPORT WEATHER SUCH AS PRECIPITATION OR FOG.

ILZ001-002-007-009-015-016-024-200700-
NORTHWEST ILLINOIS

CITY           SKY/WX    TMP DP  RH WIND       PRES   REMARKS
MOLINE         CLOUDY    55  46  71 SE6       30.01R
6HR MIN TEMP:  55; 6HR MAX TEMP:  64;

STERLING*      CLOUDY    46  42  86 E6        30.06S
SAVANNA*       PTCLDY    50  42  74 S7        30.03R
$$

ILZ003-004-008-010-011-017-018-200700-
NORTH CENTRAL ILLINOIS

CITY           SKY/WX    TMP DP  RH WIND       PRES   REMARKS
ROCKFORD       MOCLDY    48  40  73 SE7       30.09S
6HR MIN TEMP:  46; 6HR MAX TEMP:  57;

FREEPORT*      CLOUDY    44  36  74 SE12      30.07S
ROCHELLE*      PTCLDY    46  41  81 SE9       30.09R
DE KALB*       MOCLDY    48  42  80 SE10      30.11R
PERU*          PTCLDY    49  44  81 SE5       30.08F
$$

ILZ005-006-012>014-019>023-200700-
NORTHEAST ILLINOIS

CITY           SKY/WX    TMP DP  RH WIND       PRES   REMARKS
CHICAGO-OHARE  CLOUDY    45  31  58 E3        30.11S
6HR MIN TEMP:  43; 6HR MAX TEMP:  56;

CHICAGO-MIDWAY MOCLDY    49  36  61 SE5       30.12R
6HR MIN TEMP:  47; 6HR MAX TEMP:  53;

AURORA         CLOUDY    47  40  76 SE6       30.11R
6HR MIN TEMP:  46; 6HR MAX TEMP:  54;

LANSING*       PTCLDY    46  42  85 CALM      30.13S
JOLIET*        CLOUDY    46  42  86 SE5       30.13R
WAUKEGAN       PTCLDY    36  31  82 SE3       30.12R
6HR MIN TEMP:  33; 6HR MAX TEMP:  43;

DUPAGE AIRPORT PTCLDY    45  37  73 S3        30.11R
6HR MIN TEMP:  43; 6HR MAX TEMP:  55;

KANKAKEE*      CLOUDY    42  38  87 CALM      30.13R
WHEELING       CLOUDY    40  29  64 CALM      30.12S
6HR MIN TEMP:  39; 6HR MAX TEMP:  51;

MORRIS*        CLOUDY    48  41  77 CALM      30.10R
ROMEOVILLE*    PTCLDY    47  43  87 S7        30.12R
NORTHERLY ISL    N/A     39  31  73 CALM        N/A
$$

LMZ740>746-200700-
SOUTHERN LAKE MICHIGAN

STATION/POSITION SKY/WX   TEMP    WIND        PRES    VSBY  WAVE
                          AIR SEA DIR/SP/G                  HT/PER
                          (F)     (DEG/KT/KT) (MB)    (MI)  (FT/S)
HARRISON CRIB              43     160/  6/  6   N/A
BURNHAM HARBOR             40      CALM  /  2   N/A
CALUMET HARBOR             42      70/  2/  2 1019.4F
BURNS HARBOR               54     140/  7/ 11 1020.7
MICHIGAN CITY              52     110/  6/  7   N/A
$$

ILZ025>027-034>036-040-047-049-050-058-095>099-200700-
WEST-CENTRAL ILLINOIS

CITY           SKY/WX    TMP DP  RH WIND       PRES   REMARKS
QUINCY         MOCLDY    54  50  86 SE8       30.00S
GALESBURG*     PTCLDY    54  49  84 SE6       30.03S
MACOMB*        PTCLDY    52  48  88 SE10      30.04S
JACKSONVILLE*  CLOUDY    55  51  86 SE12      30.05R
PITTSFIELD*    PTCLDY    54  51  88 SE8       30.04S
$$

ILZ028>032-037-038-041>044-048-051>054-059>061-200700-
CENTRAL ILLINOIS

CITY           SKY/WX    TMP DP  RH WIND       PRES   REMARKS
PONTIAC        CLOUDY    45  44  98 SE8       30.11R FOG
BLOOMINGTON    PTCLDY    48  46  93 S8        30.10R FOG
DECATUR        FOG       48  47  96 SE8       30.10R VSB 1/4
PEORIA         PTCLDY    53  49  86 SE7       30.07S
6HR MIN TEMP:  53; 6HR MAX TEMP:  63;

LACON*         CLOUDY    50  47  88 CALM      30.07R
LINCOLN*       PTCLDY    48  48  99 SE5       30.08F FOG
SPRINGFIELD    CLOUDY    52  49  89 SE13      30.07S FOG
6HR MIN TEMP:  52; 6HR MAX TEMP:  63;

TAYLORVILLE    FOG       49  49  99 SE13      30.09S VSB 1/2
6HR MIN TEMP:  49; 6HR MAX TEMP:  59;

$$

ILZ033-039-045-046-055>057-062-063-200700-
EAST-CENTRAL ILLINOIS

CITY           SKY/WX    TMP DP  RH WIND       PRES   REMARKS
CHAMPAIGN      FOG       47  46  97 SE10      30.12R VSB 1/4
RANTOUL*       MOCLDY    47  47  99 SE5       30.12R FOG
MATTOON        FOG       49  49 100 S12       30.11S VSB 1/4
PARIS*           N/A     46  46 100 SE6       30.14F FOG
$$

ILZ079-100>102-200700-
SOUTHWEST ILLINOIS

CITY           SKY/WX    TMP DP  RH WIND       PRES   REMARKS
ALTON          CLOUDY    51  50  95 E8        30.07S FOG
BELLEVILLE     CLEAR     49  49 100 CALM      30.07S FOG
CAHOKIA*       CLOUDY    54  49  83 SE5       30.06F
SPARTA*        PTCLDY    52  50  95 SE6       30.09S
$$

ILZ064>066-069>071-074>076-080>082-084>086-088>090-092>094-200700-
SOUTH-CENTRAL ILLINOIS

CITY           SKY/WX    TMP DP  RH WIND       PRES   REMARKS
CARBONDALE     FOG       48  48 100 SE3       30.10R VSB 1/4
6HR MIN TEMP:  48; 6HR MAX TEMP:  60;

CAIRO*         FOG       46  46 100 CALM      30.10S VSB<1/4
EFFINGHAM*     FOG       50  50 100 SE3       30.14R VSB 1/2
MARION         CLOUDY    52  52 100 SE6       30.11S FOG
MT. VERNON     CLOUDY    49  48  97 E3        30.11S FOG
CENTRALIA*     CLOUDY    51  51  99 E5        30.10R FOG
SALEM*         CLOUDY    52  50  94 SE5       30.11R FOG
METROPOLIS*    FOG       48  48  99 CALM      30.11S VSB<1/4
$$

ILZ067-068-072-073-078-083-087-091-200700-
SOUTHEAST ILLINOIS

CITY           SKY/WX    TMP DP  RH WIND       PRES   REMARKS
LAWRENCEVILLE  FOG       40  39  97 E6        30.14F VSB<1/4
FLORA*         FOG       49  49  97 SE3       30.12S VSB 1/4
FAIRFIELD*     FOG       47  47 100 CALM      30.12R VSB 1/2
HARRISBURG*    PTCLDY    49  49 100 CALM      30.12R FOG
ROBINSON*      FOG       38  38 100 CALM      30.15F VSB<1/4
CARMI*         FOG       41  41 100 CALM      30.12R VSB<1/4
$$

ABBREVIATIONS USED IN REMARKS
   TC - TEMPERATURE IN CELSIUS
  WCI - WIND CHILL INDEX
   HX - HEAT INDEX
  VSB - VISIBILITY
$$




USA.gov is the U.S. government's official web portal to all federal, state and local government web resources and services.